Regional Weather Roundup
Issued by NWS Cleveland, OH

Home | Current Version | Previous Version | Graphics & Text | Print | Product List | Glossary On
Versions: 1 2 3 4 5 6 7 8 9 10 11 12 13 14 15 16 17 18 19 20 21 22 23 24 25 26 27 28 29 30 31 32 33 34 35 36 37 38 39 40 41 42 43 44 45 46 47 48 49 50
601
ASUS41 KCLE 220400
RWRCLE
OHIO REGIONAL WEATHER ROUNDUP
NATIONAL WEATHER SERVICE WILMINGTON, OH
1200 AM EDT SAT JUL 22 2017

NOTE: "FAIR" INDICATES FEW OR NO CLOUDS BELOW 12,000 FEET WITH NO
SIGNIFICANT WEATHER AND/OR OBSTRUCTIONS TO VISIBILITY.

OHZ001>008-015>018-024>027-034-035-043-044-220500-
   NORTHWEST OHIO

CITY           SKY/WX    TMP DP  RH WIND       PRES   REMARKS
DEFIANCE       FAIR     N/A N/A N/A SW6       29.95S
FINDLAY        FAIR      76  70  82 S3        29.95S
TOLEDO EXPRESS FAIR      76  69  79 SE5       29.93F
TOLEDO EXEC    FAIR      78  71  79 SE8       29.95F
LIMA           FAIR      74  72  93 S6        29.97R
$$

OHZ009>014-019>023-028>033-038-089-220500-
   NORTHEAST OHIO

CITY           SKY/WX    TMP DP  RH WIND       PRES   REMARKS
CLE-HOPKINS    MOCLDY    76  69  79 S5        29.98S
CLE-LAKEFRONT  FAIR      78  65  63 SE3       29.95R
CUY CO. ARPT   NOT AVBL
LORAIN-ELYRIA  FAIR      72  66  81 CALM      29.98S
ASHTABULA      FAIR      67  66  97 CALM      29.99R
AKRON-CANTON   FAIR      76  67  73 SE6       30.00S
WOOSTER        NOT AVBL
MANSFIELD      FAIR      75  72  90 CALM      30.00S
YOUNGSTOWN     MOCLDY    69  66  90 CALM      29.99R
$$

OHZ042-051>053-060>062-070>072-077>081-220500-
  SOUTHWEST OHIO

CITY           SKY/WX    TMP DP  RH WIND       PRES   REMARKS
CINC-COVINGTON FAIR      76  73  91 S5        29.97S
CINC-LUNKEN    FAIR      73  73 100 CALM      29.97S
HAMILTON       FAIR      76  74  93 CALM      29.98S
DAYTON         NOT AVBL
WRIGHT-PAT AFB NOT AVBL
DAYTON GENERAL FAIR      74  72  93 CALM      29.98F
WILMINGTON     CLOUDY    74  74 100 CALM      29.98F
$$

OHZ036-037-039>041-045>050-054>059-063>069-073>076-082>088-220500-
  CENTRAL AND SOUTHEAST OHIO

CITY           SKY/WX    TMP DP  RH WIND       PRES   REMARKS
COLUMBUS       MOCLDY    77  74  90 CALM      29.98R
OSU AIRPORT    FAIR      74  74 100 CALM      29.98R
BOLTON FIELD   NOT AVBL
RICKENBACK AFB NOT AVBL
NEWARK         MOCLDY    73  71  93 CALM      29.98R
MARION         FAIR      74  71  91 CALM      29.98S
LANCASTER      FAIR      72  72 100 SW3       30.00R
ZANESVILLE     FAIR      75  72  90 CALM      29.99R
NEW PHILLY     FAIR      74  74 100 SE3       29.99S FOG
$$




USA.gov is the U.S. government's official web portal to all federal, state and local government web resources and services.